CYGQCYYW

Guest
Details From CYGQ - GERALDTON GREENSTONE REGIONAL
To CYYW - ARMSTRONG
Flight Number -
Tags generated
Created
Modified
Stats Distance 82 nm / 152 km
Max Altitude 10,800 ft / 3,292 m
Waypoints 3
Social Downloads 0
Likes 0
Share VATSIM

Download

Looking for another format? Having issues loading an existing format? Contact us
Advertisement - Login to hide

Notes

Basic altitude profile: - Ascent Rate: 2500ft/min - Ascent Speed: 250kts - Cruise Altitude: 35000ft - Cruise Speed: 420kts - Descent Rate: 1500ft/min - Descent Speed: 250kts Options: - Use NATs: yes - Use PACOTS: yes - Use low airways: yes - Use high airways: yes

Route

CYGQ GRAVO CYYW

ID Type Via Altitude Latitude Longitude Leg Dist Tot Dist Heading (true) Name
O CYGQ APT - 0 ft / 0 m 49.77847˚ -86.93931˚ - 0 nm - GERALDTON GREENSTONE REGIONAL
GRAVO FIX - 10,800 ft / 3,292 m 50.00000˚ -87.68333˚ 31 nm 31 nm 295° / 295° -
O CYYW APT - 0 ft / 0 m 50.29340˚ -88.91347˚ 50 nm 82 nm 291° / 290° ARMSTRONG

Altitude Profile

Advertisement - Login to hide

CYGQ

Details ICAO CYGQ (YGQ)
Name GERALDTON GREENSTONE REGIONAL
Region Canada
Timezone America/Toronto (UTC-4.0)
Stats Elevation 1,144 ft / 349 m (AMSL)
Location 49.778472° -86.939307°
Runways 1
Magnetic Variation 6.234° W

METAR

CYGQ 261000Z 08013G20KT 8SM OVC006 08/07 A2973 RMK ST8 CIG RAG SLP073

Decode

TAF

TAF TAF CYGQ 260741Z 2608/2620 07012KT 11/2SM -SHRA BR OVC002 TEMPO 2608/2615 6SM BR OVC006 FM261500 08010KT 5SM -SHRA BR OVC006 TEMPO 2615/2618 P6SM NSW OVC010 FM261800 09010KT P6SM OVC010 TEMPO 2618/2620 6SM -SHRA BR OVC008 RMK NXT FCST BY 261400Z

Decode

Departure Runways

ID Width Length Bearing (true) Bearing (mag) Surface Threshold Offset Overrun Length
08 100 ft / 30 m 5,014 ft / 1,528 m 72.34° 78.57° Asphalt 0 ft / 0 m 0 ft / 0 m
26 100 ft / 30 m 5,014 ft / 1,528 m 252.35° 258.58° Asphalt 0 ft / 0 m 0 ft / 0 m

CYYW

Details ICAO CYYW (YYW)
Name ARMSTRONG
Region Canada
Timezone America/Toronto (UTC-4.0)
Stats Elevation 1,058 ft / 322 m (AMSL)
Location 50.293397° -88.913465°
Runways 2
Magnetic Variation 4.588° W

METAR

CYYW 261000Z AUTO 08005KT 020V110 1 1/2SM -RA BR OVC003 09/09 A2973 RMK VIS VRB 1 1/4-2 1/4 PRESRR SLP061

Decode

TAF

Not found

Destination Runways

ID Width Length Bearing (true) Bearing (mag) Surface Threshold Offset Overrun Length
12 100 ft / 30 m 3,991 ft / 1,216 m 117.05° 121.64° Asphalt 0 ft / 0 m 0 ft / 0 m
18 100 ft / 30 m 2,940 ft / 896 m 178.75° 183.34° Asphalt 0 ft / 0 m 0 ft / 0 m
30 100 ft / 30 m 3,991 ft / 1,216 m 297.06° 301.65° Asphalt 0 ft / 0 m 0 ft / 0 m
36 100 ft / 30 m 2,940 ft / 896 m 358.75° 3.34° Asphalt 0 ft / 0 m 0 ft / 0 m